Previsão horária em Bolshie Izori

Hoje, 8 Março, Segunda-feira

Tempo Temperatura Precipitação Vento Pressão Humidade
00:00 -8°C° 0 mm 3 m/s 736 mmHg 91%
01:00 -10°C° 0 mm 4 m/s 737 mmHg 90%
02:00 -10°C° 0 mm 4 m/s 737 mmHg 89%
03:00 -11°C° 0 mm 4 m/s 737 mmHg 90%
04:00 -11°C° 0 mm 4 m/s 738 mmHg 91%
05:00 -12°C° 0 mm 3 m/s 739 mmHg 92%
06:00 -11°C° 0.1 mm 4 m/s 739 mmHg 91%
07:00 -11°C° 0.1 mm 4 m/s 740 mmHg 90%
08:00 -11°C° 0.1 mm 4 m/s 741 mmHg 89%
09:00 -10°C° 0 mm 4 m/s 742 mmHg 86%
10:00 -10°C° 0 mm 4 m/s 742 mmHg 83%
11:00 -10°C° 0 mm 4 m/s 743 mmHg 80%
12:00 -9°C° 0 mm 4 m/s 744 mmHg 79%
13:00 -9°C° 0 mm 4 m/s 744 mmHg 78%
14:00 -9°C° 0 mm 4 m/s 745 mmHg 77%
15:00 -10°C° 0 mm 4 m/s 745 mmHg 78%
16:00 -9°C° 0 mm 3 m/s 746 mmHg 79%
17:00 -9°C° 0 mm 3 m/s 746 mmHg 81%
18:00 -10°C° 0 mm 3 m/s 747 mmHg 83%
19:00 -10°C° 0 mm 2 m/s 748 mmHg 86%
20:00 -12°C° 0 mm 2 m/s 748 mmHg 89%
21:00 -13°C° 0 mm 2 m/s 749 mmHg 91%
22:00 -13°C° 0 mm 2 m/s 749 mmHg 92%
23:00 -14°C° 0 mm 2 m/s 749 mmHg 94%

Amanhã, 9 Março, Terça-feira

Tempo Temperatura Precipitação Vento Pressão Humidade
00:00 -12°C° 0 mm 1 m/s 750 mmHg 95%
01:00 -13°C° 0 mm 1 m/s 750 mmHg 96%
02:00 -13°C° 0 mm 1 m/s 750 mmHg 96%
03:00 -14°C° 0 mm 1 m/s 750 mmHg 97%
04:00 -14°C° 0 mm 1 m/s 751 mmHg 97%
05:00 -14°C° 0 mm 1 m/s 751 mmHg 97%
06:00 -14°C° 0 mm 1 m/s 751 mmHg 96%
07:00 -13°C° 0 mm 1 m/s 752 mmHg 94%
08:00 -13°C° 0 mm 1 m/s 752 mmHg 93%
09:00 -11°C° 0 mm 1 m/s 752 mmHg 88%
10:00 -12°C° 0 mm 2 m/s 752 mmHg 82%
11:00 -10°C° 0 mm 2 m/s 753 mmHg 77%
12:00 -9°C° 0 mm 2 m/s 753 mmHg 74%
13:00 -7°C° 0 mm 1 m/s 753 mmHg 71%
14:00 -7°C° 0 mm 1 m/s 753 mmHg 68%
15:00 -7°C° 0 mm 1 m/s 753 mmHg 72%
16:00 -7°C° 0 mm 1 m/s 753 mmHg 76%
17:00 -8°C° 0 mm 0 m/s 753 mmHg 80%
18:00 -8°C° 0 mm 1 m/s 753 mmHg 84%
19:00 -9°C° 0 mm 1 m/s 753 mmHg 87%
20:00 -10°C° 0 mm 2 m/s 753 mmHg 91%
21:00 -10°C° 0.4 mm 2 m/s 753 mmHg 92%
22:00 -12°C° 0.4 mm 3 m/s 754 mmHg 92%
23:00 -12°C° 0.4 mm 3 m/s 754 mmHg 93%

Depois de amanhã, 10 Março, Quarta-feira

Tempo Temperatura Precipitação Vento Pressão Humidade
00:00 -13°C° 0.4 mm 3 m/s 754 mmHg 93%
01:00 -13°C° 0.4 mm 3 m/s 754 mmHg 93%
02:00 -14°C° 0.4 mm 4 m/s 754 mmHg 93%
03:00 -15°C° 0.4 mm 4 m/s 754 mmHg 93%
04:00 -15°C° 0.4 mm 4 m/s 754 mmHg 93%
05:00 -15°C° 0.4 mm 4 m/s 754 mmHg 93%
06:00 -16°C° 0.3 mm 4 m/s 755 mmHg 92%
07:00 -16°C° 0.3 mm 4 m/s 755 mmHg 92%
08:00 -17°C° 0.3 mm 4 m/s 756 mmHg 91%
09:00 -16°C° 0.1 mm 4 m/s 756 mmHg 88%
10:00 -15°C° 0.1 mm 4 m/s 756 mmHg 84%
11:00 -15°C° 0.1 mm 4 m/s 757 mmHg 80%
12:00 -14°C° 0 mm 4 m/s 757 mmHg 77%
13:00 -14°C° 0 mm 4 m/s 757 mmHg 75%
14:00 -12°C° 0 mm 3 m/s 757 mmHg 72%
15:00 -12°C° 0 mm 3 m/s 757 mmHg 73%
16:00 -13°C° 0 mm 3 m/s 757 mmHg 74%
17:00 -13°C° 0 mm 3 m/s 757 mmHg 76%
18:00 -15°C° 0 mm 3 m/s 757 mmHg 78%
19:00 -16°C° 0 mm 3 m/s 758 mmHg 79%
20:00 -17°C° 0 mm 3 m/s 758 mmHg 81%
21:00 -17°C° 0 mm 3 m/s 758 mmHg 81%
22:00 -18°C° 0 mm 3 m/s 758 mmHg 82%
23:00 -18°C° 0 mm 3 m/s 758 mmHg 82%

11 Março, Quinta-feira

Tempo Temperatura Precipitação Vento Pressão Humidade
00:00 -18°C° 0 mm 3 m/s 758 mmHg 83%
01:00 -18°C° 0 mm 3 m/s 758 mmHg 84%
02:00 -18°C° 0 mm 3 m/s 758 mmHg 85%
03:00 -19°C° 0 mm 4 m/s 758 mmHg 85%
04:00 -19°C° 0 mm 4 m/s 758 mmHg 86%
05:00 -19°C° 0 mm 4 m/s 758 mmHg 86%
06:00 -19°C° 0 mm 4 m/s 757 mmHg 87%
07:00 -19°C° 0 mm 4 m/s 757 mmHg 87%
08:00 -19°C° 0 mm 4 m/s 757 mmHg 88%
09:00 -17°C° 0 mm 4 m/s 757 mmHg 87%
10:00 -15°C° 0 mm 4 m/s 757 mmHg 86%
11:00 -14°C° 0 mm 4 m/s 756 mmHg 84%
12:00 -11°C° 0 mm 4 m/s 756 mmHg 84%
13:00 -10°C° 0 mm 4 m/s 756 mmHg 84%
14:00 -9°C° 0 mm 4 m/s 755 mmHg 83%
15:00 -9°C° 0 mm 4 m/s 755 mmHg 85%
16:00 -9°C° 0 mm 4 m/s 754 mmHg 86%
17:00 -10°C° 0 mm 4 m/s 754 mmHg 88%
18:00 -11°C° 0 mm 5 m/s 754 mmHg 88%
19:00 -12°C° 0 mm 5 m/s 753 mmHg 89%
20:00 -13°C° 0 mm 5 m/s 753 mmHg 90%
21:00 -13°C° 0 mm 5 m/s 752 mmHg 90%
22:00 -13°C° 0 mm 5 m/s 752 mmHg 90%
23:00 -13°C° 0 mm 5 m/s 751 mmHg 90%

12 Março, Sexta-feira

Tempo Temperatura Precipitação Vento Pressão Humidade
00:00 -14°C° 0 mm 5 m/s 750 mmHg 89%
01:00 -15°C° 0 mm 6 m/s 750 mmHg 88%
02:00 -15°C° 0 mm 6 m/s 749 mmHg 88%
03:00 -15°C° 0 mm 6 m/s 748 mmHg 87%
04:00 -15°C° 0 mm 6 m/s 747 mmHg 86%
05:00 -15°C° 0 mm 7 m/s 745 mmHg 85%
06:00 -14°C° 0.2 mm 7 m/s 745 mmHg 86%
07:00 -13°C° 0.2 mm 7 m/s 744 mmHg 88%
08:00 -13°C° 0.2 mm 7 m/s 743 mmHg 89%
09:00 -11°C° 0.4 mm 7 m/s 742 mmHg 89%
10:00 -9°C° 0.4 mm 7 m/s 741 mmHg 89%
11:00 -8°C° 0.4 mm 7 m/s 740 mmHg 88%
12:00 -8°C° 0.3 mm 7 m/s 739 mmHg 89%
13:00 -7°C° 0.3 mm 7 m/s 738 mmHg 89%
14:00 -6°C° 0.3 mm 7 m/s 738 mmHg 90%
15:00 -5°C° 0.6 mm 6 m/s 737 mmHg 91%
16:00 -5°C° 0.6 mm 5 m/s 736 mmHg 93%
17:00 -5°C° 0.6 mm 5 m/s 736 mmHg 94%
18:00 -3°C° 0.6 mm 4 m/s 736 mmHg 95%
19:00 -2°C° 0.6 mm 3 m/s 736 mmHg 97%
20:00 -1°C° 0.6 mm 2 m/s 736 mmHg 98%
21:00 -1°C° 0.2 mm 2 m/s 736 mmHg 98%
22:00 +1°C° 0.2 mm 2 m/s 736 mmHg 98%
23:00 0°C° 0.2 mm 3 m/s 736 mmHg 98%

13 Março, Sábado

Tempo Temperatura Precipitação Vento Pressão Humidade
00:00 0°C° 0.1 mm 3 m/s 736 mmHg 97%
01:00 0°C° 0.1 mm 3 m/s 736 mmHg 96%
02:00 0°C° 0.1 mm 3 m/s 737 mmHg 96%
03:00 0°C° 0 mm 3 m/s 737 mmHg 95%
04:00 -1°C° 0 mm 3 m/s 736 mmHg 95%
05:00 -1°C° 0 mm 3 m/s 736 mmHg 95%
06:00 -1°C° 0.1 mm 3 m/s 737 mmHg 96%
07:00 -2°C° 0.1 mm 4 m/s 737 mmHg 96%
08:00 -2°C° 0.1 mm 4 m/s 737 mmHg 97%
09:00 -1°C° 0.5 mm 4 m/s 737 mmHg 97%
10:00 0°C° 0.5 mm 3 m/s 738 mmHg 98%
11:00 0°C° 0.5 mm 3 m/s 738 mmHg 98%
12:00 0°C° 0.3 mm 3 m/s 738 mmHg 98%
13:00 0°C° 0.3 mm 3 m/s 739 mmHg 98%
14:00 -1°C° 0.3 mm 4 m/s 739 mmHg 98%
15:00 -1°C° 0.6 mm 4 m/s 740 mmHg 98%
16:00 -1°C° 0.6 mm 4 m/s 740 mmHg 98%
17:00 -1°C° 0.6 mm 4 m/s 741 mmHg 98%
18:00 -1°C° 0.2 mm 4 m/s 741 mmHg 97%
19:00 0°C° 0.2 mm 3 m/s 742 mmHg 96%
20:00 -1°C° 0.2 mm 3 m/s 742 mmHg 95%
21:00 -1°C° 0 mm 3 m/s 743 mmHg 95%
22:00 -2°C° 0 mm 2 m/s 743 mmHg 96%
23:00 -2°C° 0 mm 2 m/s 743 mmHg 96%
Mostrar mais